Location: Adamstown South Public School
(32.9318°S, 151.7012°E)
Time: 15:48:58
(UTC+00:00)

H-2A R/B - Pass Details

Date: 07 June 2020
Orbit: 530 x 652 km, 98.3° (Epoch: 04 July)

Event Time Altitude Azimuth Distance (km) Brightness Sun altitude
Rises 07:15:09 0° 173° (S) 2,764 5.6 -5.0°
Reaches altitude 10° 07:17:21 10° 178° (S) 1,846 4.8 -5.4°
Maximum altitude 07:21:13 54° 254° (WSW) 670 3.1 -6.1°
Drops below altitude 10° 07:24:59 10° 332° (NNW) 1,786 5.8 -6.8°
Sets 07:27:05 0° 336° (NNW) 2,664 6.6 -7.3°
